Regional Weather Roundup
Issued by NWS

Home | Current Version | Previous Version | Graphics & Text | Print | Product List | Glossary Off
Versions: 1 2 3 4 5 6 7 8 9 10 11 12 13 14 15 16 17 18 19 20 21 22 23 24 25 26 27 28 29 30 31 32 33 34 35 36 37 38 39 40 41 42 43 44 45 46 47 48 49 50

697
ASUS43 KLSX 221007
RWRMO

WEATHER SUMMARY FOR MISSOURI
NATIONAL WEATHER SERVICE SPRINGFIELD MO
500 AM CDT THU JUN 22 2017

NOTE: "FAIR" INDICATES FEW OR NO CLOUDS BELOW 12,000 FEET WITH NO
       SIGNIFICANT WEATHER AND/OR OBSTRUCTIONS TO VISIBILITY.
       CURRENT SKY AND/OR WEATHER CONDITIONS ARE NOT AVAILABLE FOR
       CHILLICOTHE AND FARMINGTON.

MOZ001>031-035>038-043-044-053-054-221100-
...NORTHERN AND WESTERN MISSOURI...

CITY           SKY/WX    TMP DP  RH WIND       PRES   REMARKS
KANSAS CTY INT MOCLDY    72  63  73 S9        29.82S
KANSAS C DTWN  PTCLDY    73  64  73 S9        29.80F
LEE`S SUMMIT   PTCLDY    72  66  81 S10       29.83F
ST JOSEPH      PTCLDY    73  66  78 S10       29.78F
CHILLICOTHE      N/A     72  65  78 S7        29.83F
KIRKSVILLE     CLEAR     70  65  84 SW6       29.84S

$$
MOZ066>068-077>081-088>096-101>105-221100-
...SOUTHWEST MISSOURI...

CITY           SKY/WX    TMP DP  RH WIND       PRES   REMARKS
SPRINGFIELD    CLOUDY    72  68  87 SE9       29.86F
JOPLIN         MOCLDY    71  68  90 SE5       29.84F
BRANSON        CLOUDY    70  70 100 CALM      29.88F

$$
MOZ032>034-039>042-045>050-055>058-069>072-221100-
...CENTRAL MISSOURI...

CITY           SKY/WX    TMP DP  RH WIND       PRES   REMARKS
COLUMBIA       CLOUDY    70  68  93 S8        29.86F
JEFFERSON CITY PTCLDY    72  67  84 SE3       29.86F
ROLLA          CLOUDY    68  67  96 SE8       29.88F
SEDALIA        PTCLDY    69  68  96 S8        29.86S
WHITEMAN AFB   PTCLDY    69  69 100 S9        29.82F
WARRENSBURG    PTCLDY    68  63  83 S5        29.83F
OSAGE BEACH    PTCLDY    67  65  93 S3        29.87F

$$
MOZ051-052-059>065-221100-
...EAST CENTRAL MISSOURI...

CITY           SKY/WX    TMP DP  RH WIND       PRES   REMARKS
ST LOUIS INTL  PTCLDY    77  67  71 S8        29.90S
SPIRIT OF STL  PTCLDY    73  68  84 S5        29.88F
ST CHARLES     PTCLDY    74  69  85 S9        29.88S

$$
MOZ072>076-082>087-097>100-106>115-221100-
...SOUTH CENTRAL AND SOUTHEAST MISSOURI...

CITY           SKY/WX    TMP DP  RH WIND       PRES   REMARKS
CAPE GIRARDEAU CLOUDY    73  69  87 SE9       29.92F
FARMINGTON     CLOUDY    72  69  90 S7        29.93F
POPLAR BLUFF   CLOUDY    74  71  91 E6        29.90S
WEST PLAINS    CLOUDY    71  69  93 E5        29.91F FOG

$$




USA.gov is the U.S. government's official web portal to all federal, state and local government web resources and services.